TimeCDT,TemperatureF,Dew PointF,Humidity,Sea Level PressureIn,VisibilityMPH,Wind Direction,Wind SpeedMPH,Gust SpeedMPH,PrecipitationIn,Events,Conditions,WindDirDegrees,DateUTC
12:15 AM,83.7,75.6,76,29.87,10.0,East,9.2,-,N/A,,Scattered Clouds,100,2013-09-15 05:15:00
12:35 AM,83.7,75.9,77,29.87,10.0,East,6.9,-,N/A,,Scattered Clouds,90,2013-09-15 05:35:00
12:55 AM,83.5,75.7,77,29.86,10.0,East,9.2,-,N/A,,Scattered Clouds,90,2013-09-15 05:55:00
1:15 AM,83.5,75.6,77,29.86,10.0,East,10.4,-,N/A,,Clear,90,2013-09-15 06:15:00
1:35 AM,83.5,75.2,76,29.86,10.0,ENE,8.1,-,N/A,,Clear,70,2013-09-15 06:35:00
1:55 AM,83.5,75.7,77,29.85,10.0,East,8.1,-,N/A,,Clear,80,2013-09-15 06:55:00
2:15 AM,83.5,75.4,76,29.85,10.0,East,8.1,-,N/A,,Clear,80,2013-09-15 07:15:00
2:35 AM,83.5,75.9,78,29.85,10.0,East,8.1,-,N/A,,Clear,80,2013-09-15 07:35:00
2:55 AM,83.5,75.7,77,29.85,10.0,East,9.2,16.1,N/A,,Clear,90,2013-09-15 07:55:00
3:15 AM,83.8,75.4,76,29.85,10.0,East,6.9,-,N/A,,Scattered Clouds,80,2013-09-15 08:15:00
3:35 AM,84.0,75.4,75,29.85,10.0,East,8.1,-,N/A,,Scattered Clouds,80,2013-09-15 08:35:00
3:55 AM,83.7,75.2,76,29.84,10.0,East,9.2,-,N/A,,Scattered Clouds,80,2013-09-15 08:55:00
4:15 AM,84.0,75.6,76,29.84,10.0,ENE,11.5,18.4,N/A,,Scattered Clouds,70,2013-09-15 09:15:00
4:35 AM,84.2,75.2,74,29.84,10.0,ENE,10.4,17.3,N/A,,Scattered Clouds,70,2013-09-15 09:35:00
4:55 AM,84.2,75.2,74,29.84,10.0,East,10.4,-,N/A,,Scattered Clouds,80,2013-09-15 09:55:00
5:15 AM,84.2,75.2,74,29.84,10.0,East,8.1,-,N/A,,Scattered Clouds,80,2013-09-15 10:15:00
5:35 AM,84.2,75.2,74,29.85,10.0,East,11.5,17.3,N/A,,Clear,80,2013-09-15 10:35:00
5:55 AM,84.2,75.2,74,29.85,10.0,East,10.4,-,N/A,,Scattered Clouds,80,2013-09-15 10:55:00
6:15 AM,84.2,75.0,74,29.85,10.0,East,10.4,-,N/A,,Clear,80,2013-09-15 11:15:00
6:35 AM,84.0,74.8,74,29.86,10.0,East,9.2,-,N/A,,Scattered Clouds,80,2013-09-15 11:35:00
6:55 AM,84.0,75.0,74,29.87,10.0,East,11.5,-,N/A,,Mostly Cloudy,80,2013-09-15 11:55:00
7:15 AM,84.2,75.6,75,29.87,10.0,East,13.8,-,N/A,,Scattered Clouds,80,2013-09-15 12:15:00
7:35 AM,84.2,75.4,75,29.87,10.0,East,9.2,-,N/A,,Clear,80,2013-09-15 12:35:00
7:55 AM,83.5,75.2,76,29.87,7.0,East,12.7,26.5,N/A,Rain,Light Rain,80,2013-09-15 12:55:00
8:15 AM,81.0,74.7,81,29.87,10.0,East,9.2,-,N/A,,Scattered Clouds,80,2013-09-15 13:15:00
8:35 AM,82.2,77.4,85,29.89,10.0,East,10.4,-,N/A,,Scattered Clouds,90,2013-09-15 13:35:00
8:55 AM,83.7,76.5,79,29.89,10.0,East,11.5,-,N/A,,Scattered Clouds,90,2013-09-15 13:55:00
9:15 AM,82.9,75.6,78,29.90,10.0,East,13.8,18.4,N/A,,Scattered Clouds,100,2013-09-15 14:15:00
9:35 AM,83.1,75.6,78,29.91,10.0,East,15.0,19.6,N/A,,Scattered Clouds,100,2013-09-15 14:35:00
9:55 AM,85.3,76.3,74,29.91,10.0,East,13.8,-,N/A,,Scattered Clouds,100,2013-09-15 14:55:00
10:15 AM,86.0,75.7,71,29.92,10.0,East,13.8,20.7,N/A,,Clear,100,2013-09-15 15:15:00
10:35 AM,86.2,75.6,70,29.93,10.0,SE,16.1,25.3,N/A,,Scattered Clouds,130,2013-09-15 15:35:00
10:55 AM,85.5,76.1,73,29.93,10.0,East,11.5,17.3,N/A,,Scattered Clouds,100,2013-09-15 15:55:00
11:15 AM,89.2,77.4,68,29.93,10.0,East,13.8,20.7,N/A,,Clear,100,2013-09-15 16:15:00
11:35 AM,89.6,76.6,65,29.93,10.0,East,21.9,28.8,N/A,,Scattered Clouds,90,2013-09-15 16:35:00
11:55 AM,88.9,75.6,65,29.93,10.0,East,20.7,28.8,N/A,,Mostly Cloudy,100,2013-09-15 16:55:00
12:15 PM,88.0,75.9,67,29.92,10.0,East,20.7,25.3,N/A,,Mostly Cloudy,100,2013-09-15 17:15:00
12:35 PM,85.3,77.5,78,29.92,10.0,East,18.4,23.0,0.01,,Scattered Clouds,100,2013-09-15 17:35:00
12:55 PM,86.9,77.5,74,29.92,10.0,East,15.0,21.9,0.01,,Scattered Clouds,90,2013-09-15 17:55:00
1:15 PM,88.3,76.5,68,29.91,10.0,East,19.6,27.6,N/A,,Scattered Clouds,90,2013-09-15 18:15:00
1:35 PM,88.3,75.4,65,29.91,10.0,East,17.3,26.5,N/A,,Scattered Clouds,90,2013-09-15 18:35:00
1:55 PM,89.4,75.4,63,29.90,10.0,East,19.6,26.5,N/A,,Scattered Clouds,90,2013-09-15 18:55:00
2:15 PM,90.7,75.6,61,29.89,10.0,East,21.9,26.5,N/A,,Scattered Clouds,80,2013-09-15 19:15:00
2:35 PM,90.5,75.6,61,29.89,10.0,East,21.9,29.9,N/A,,Scattered Clouds,90,2013-09-15 19:35:00
2:55 PM,90.1,75.9,63,29.88,10.0,East,18.4,28.8,N/A,,Scattered Clouds,90,2013-09-15 19:55:00
3:15 PM,90.9,75.2,60,29.88,10.0,East,23.0,28.8,N/A,,Mostly Cloudy,90,2013-09-15 20:15:00
3:35 PM,90.1,74.5,60,29.87,10.0,East,18.4,29.9,N/A,,Scattered Clouds,90,2013-09-15 20:35:00
3:55 PM,88.7,74.7,63,29.87,10.0,East,21.9,31.1,N/A,,Mostly Cloudy,90,2013-09-15 20:55:00
4:15 PM,88.7,74.8,63,29.87,10.0,East,20.7,26.5,N/A,,Scattered Clouds,80,2013-09-15 21:15:00
4:35 PM,89.2,74.7,62,29.87,10.0,East,24.2,28.8,N/A,,Scattered Clouds,90,2013-09-15 21:35:00
4:55 PM,89.1,75.2,63,29.87,10.0,East,20.7,28.8,N/A,,Mostly Cloudy,100,2013-09-15 21:55:00
5:15 PM,88.5,75.4,65,29.87,10.0,East,16.1,27.6,N/A,,Scattered Clouds,90,2013-09-15 22:15:00
5:35 PM,88.5,75.9,66,29.89,10.0,East,24.2,31.1,0.01,,Mostly Cloudy,100,2013-09-15 22:35:00
5:55 PM,83.7,77.4,81,29.88,10.0,East,10.4,16.1,0.02,,Scattered Clouds,90,2013-09-15 22:55:00
6:15 PM,84.4,79.0,84,29.89,10.0,East,13.8,20.7,N/A,,Scattered Clouds,80,2013-09-15 23:15:00
6:35 PM,84.4,77.0,78,29.89,5.0,SE,16.1,21.9,0.03,Rain,Heavy Rain,130,2013-09-15 23:35:00
6:55 PM,82.0,78.4,89,29.89,10.0,East,8.1,-,0.03,,Mostly Cloudy,90,2013-09-15 23:55:00
7:15 PM,82.9,79.9,90,29.89,10.0,East,10.4,-,N/A,,Mostly Cloudy,80,2013-09-16 00:15:00
7:35 PM,83.5,78.8,86,29.90,10.0,East,12.7,19.6,N/A,,Scattered Clouds,90,2013-09-16 00:35:00
7:55 PM,83.5,78.3,84,29.90,10.0,East,13.8,18.4,N/A,,Scattered Clouds,80,2013-09-16 00:55:00
8:15 PM,83.7,78.4,84,29.90,10.0,East,9.2,-,N/A,,Scattered Clouds,90,2013-09-16 01:15:00
8:35 PM,83.8,78.4,84,29.91,10.0,East,12.7,17.3,N/A,,Scattered Clouds,90,2013-09-16 01:35:00
8:55 PM,84.0,77.9,82,29.92,10.0,East,12.7,17.3,N/A,,Scattered Clouds,80,2013-09-16 01:55:00
9:15 PM,83.7,77.9,83,29.92,10.0,East,9.2,-,N/A,,Scattered Clouds,80,2013-09-16 02:15:00
9:35 PM,84.2,76.8,78,29.92,10.0,East,12.7,19.6,N/A,,Scattered Clouds,90,2013-09-16 02:35:00
9:55 PM,83.8,75.7,76,29.92,10.0,East,11.5,-,N/A,,Clear,80,2013-09-16 02:55:00
10:15 PM,83.3,75.7,78,29.93,10.0,ENE,13.8,21.9,N/A,,Scattered Clouds,60,2013-09-16 03:15:00
10:35 PM,80.1,75.2,85,29.93,10.0,ENE,8.1,-,N/A,,Scattered Clouds,70,2013-09-16 03:35:00
10:55 PM,80.1,77.2,91,29.93,10.0,ENE,6.9,-,N/A,,Clear,60,2013-09-16 03:55:00
11:15 PM,80.8,78.3,92,29.93,10.0,ENE,8.1,-,N/A,,Clear,60,2013-09-16 04:15:00
11:35 PM,82.4,78.8,89,29.92,10.0,ENE,12.7,17.3,N/A,,Clear,70,2013-09-16 04:35:00
11:55 PM,82.8,78.4,87,29.92,10.0,ENE,10.4,-,N/A,,Clear,70,2013-09-16 04:55:00